Theta_e
329 334 333 335 333 333 331 328 330 332 333 333 340 343 344 344 347 348 349 350 349 349 346 344 344 342 340 337 337 335 331 328 326 325 325 327 333 330 330 331 331 332 335
325 329 332 332 333 332 332 331 330 332 332 337 340 347 345 346 346 345 344 344 345 347 346 342 342 340 338 337 336 333 331 329 327 323 321 318 324 327 330 330 331 330 333
324 322 328 330 332 329 332 327 329 328 335 336 339 344 344 343 341 342 343 345 347 346 343 341 337 335 336 336 335 335 331 328 329 329 326 321 321 326 330 329 330 330 329
328 322 323 326 327 326 329 326 328 326 328 332 333 342 339 337 340 340 337 337 339 338 337 336 334 331 329 328 329 327 330 333 325 332 332 329 329 322 320 324 325 321 325
323 321 318 326 328 327 322 326 329 328 332 335 342 339 338 339 338 335 332 331 329 330 330 328 326 324 323 323 320 316 315 318 316 318 317 319 318 315 310 310 309 312 314
324 322 320 323 326 326 329 329 330 336 340 340 338 338 336 334 331 327 324 322 319 318 319 320 318 316 314 312 312 310 310 310 309 310 310 308 307 306 304 302 303 303 307
330 328 324 322 331 332 336 337 337 334 334 331 329 327 325 325 322 319 315 312 310 310 310 312 311 311 310 309 307 306 306 306 305 305 305 304 304 303 303 301 301 300 302
333 332 334 330 336 338 334 333 330 323 323 321 319 318 317 315 312 311 310 308 307 307 309 311 309 308 307 306 304 303 304 303 304 304 303 302 302 302 301 299 298 295 296
317 320 329 334 333 332 329 324 321 318 316 314 313 311 311 310 308 307 308 308 308 311 310 307 304 303 303 302 301 300 301 301 302 302 302 301 301 301 300 298 297 296 294
325 329 331 329 329 325 320 318 316 313 313 312 311 309 308 308 308 308 307 307 308 308 306 303 302 301 301 300 299 299 301 301 301 302 301 300 300 299 299 298 296 295 295
325 327 327 323 319 317 315 313 312 311 310 309 308 307 307 307 307 306 305 305 305 306 305 302 301 301 300 299 298 299 301 301 300 301 301 302 301 299 299 298 297 296 298
322 319 316 315 314 312 312 312 311 308 307 306 306 305 305 304 304 304 304 304 303 304 302 302 301 301 300 298 298 298 299 299 300 301 301 301 303 300 300 299 298 297 299
315 314 313 312 311 311 311 309 307 305 305 305 305 304 303 303 302 302 302 303 302 301 300 300 300 300 300 299 298 298 298 298 299 300 300 300 300 300 303 301 302 302 302
313 311 309 309 310 309 307 305 304 304 304 303 303 303 302 302 301 301 301 302 302 300 300 300 301 300 300 299 299 298 297 297 299 300 300 300 302 304 303 302 302 301 300
309 308 307 307 306 305 303 303 302 302 303 303 302 302 302 302 302 301 301 301 302 301 302 301 300 299 299 299 298 297 296 296 297 298 300 301 307 307 305 303 302 302 301
306 306 305 305 304 302 302 302 301 302 303 304 303 303 302 301 300 300 300 299 299 299 300 299 297 295 299 298 300 298 295 296 295 295 297 299 305 303 303 303 304 303 300
304 304 304 302 301 301 301 300 301 303 304 304 303 302 300 300 299 299 299 297 296 296 297 295 295 294 295 297 297 300 295 295 295 295 298 300 303 301 299 300 302 302 303
304 303 302 301 300 299 300 302 303 304 303 302 301 301 300 299 298 297 296 296 295 295 295 294 293 293 295 296 296 298 295 295 296 300 301 301 301 300 297 299 299 300 301
304 303 302 300 300 301 302 303 302 302 302 301 300 300 299 297 297 296 295 295 295 296 296 295 294 293 292 295 295 295 295 296 295 299 302 301 299 297 296 298 298 297 299
304 302 301 300 300 299 302 302 300 300 299 300 300 300 299 298 296 295 295 294 295 296 298 296 295 296 292 295 294 294 293 293 294 296 297 300 297 295 295 295 296 295 297
302 301 300 299 299 300 301 300 299 298 300 301 300 299 297 297 296 295 294 293 293 292 292 292 292 293 293 292 294 293 291 291 292 294 296 297 296 294 294 294 294 294 295
300 300 299 299 299 301 301 299 298 299 300 299 299 298 297 299 297 293 293 292 291 290 290 290 290 291 292 294 293 293 293 294 292 293 295 295 294 293 294 294 293 293 296
300 300 299 298 298 299 301 298 298 299 299 297 295 296 296 296 295 293 292 290 289 289 289 289 288 289 291 290 293 292 292 294 293 294 296 295 293 293 293 293 293 293 293
300 300 299 298 298 299 300 299 300 300 298 296 294 294 294 293 292 292 291 290 288 288 289 289 288 288 289 290 290 290 291 293 293 294 293 293 292 292 292 291 291 291 292
299 299 299 299 298 299 299 299 299 298 295 295 294 293 292 291 290 289 289 289 288 289 288 287 288 288 288 289 290 289 290 290 291 291 289 288 288 287 287 288 289 290 290
299 298 299 299 299 299 299 298 298 296 294 293 293 291 291 290 289 289 288 291 291 291 290 290 291 290 290 290 291 291 291 290 290 287 286 285 285 285 285 285 286 287 288
Wind_Speed
8 11 11 12 12 10 10 9 8 6 6 5 10 4 3 2 2 2 6 6 5 4 2 1 3 1 1 3 4 2 2 2 3 4 5 3 6 6 4 4 5 5 5
11 10 10 11 13 14 11 9 8 6 9 4 5 7 5 4 2 2 4 3 3 4 3 3 4 6 3 4 3 3 3 1 3 2 2 6 5 3 4 4 3 5 3
18 11 13 11 9 9 9 3 10 9 8 9 6 9 6 1 3 2 3 7 9 9 7 6 4 4 2 3 4 4 5 3 2 3 3 3 3 5 5 6 5 7 5
13 12 9 8 8 8 5 4 7 8 8 8 5 14 3 2 3 5 6 6 11 11 10 9 8 8 5 7 7 7 4 3 4 2 2 3 3 4 5 4 5 9 7
19 17 15 14 11 7 7 6 6 2 7 3 12 5 6 8 6 4 11 10 11 11 11 11 10 10 7 8 9 8 8 6 4 4 4 3 3 4 3 6 6 8 6
15 17 12 7 7 7 7 7 6 1 3 5 1 7 13 9 9 9 8 7 7 7 10 11 9 7 7 7 6 6 8 6 5 3 4 3 3 4 3 4 6 6 4
14 13 14 11 9 8 9 9 10 8 7 10 13 12 14 13 12 9 7 7 5 5 6 7 8 7 7 8 6 6 6 5 4 5 3 3 3 2 3 3 6 5 4
15 15 15 11 13 14 15 16 15 13 13 14 14 13 13 9 7 8 5 5 5 4 5 9 9 10 8 6 6 4 4 5 5 7 6 4 4 3 3 3 5 7 3
10 14 17 15 16 15 12 16 16 13 13 14 13 13 11 10 8 6 6 6 5 7 9 9 9 8 8 6 6 4 5 5 5 6 5 2 3 3 3 3 2 2 8
17 17 16 18 15 14 15 15 15 15 13 13 11 10 9 9 9 8 8 7 7 7 8 9 8 7 6 6 6 5 5 6 4 3 5 4 3 3 3 3 2 2 3
20 18 17 14 15 15 16 16 14 15 13 12 11 12 10 10 9 8 6 6 7 7 8 7 6 6 6 6 6 5 6 5 4 4 5 6 5 4 4 4 3 3 3
19 18 19 16 15 17 15 14 13 13 11 11 11 10 9 8 8 7 7 6 7 6 6 5 6 6 6 6 7 6 4 4 6 6 6 7 6 7 6 4 6 5 6
21 20 19 16 15 16 14 14 12 12 11 11 11 9 8 8 7 7 6 6 7 6 6 6 7 6 6 6 5 5 5 5 5 6 6 6 6 6 8 7 8 9 9
22 20 17 16 14 13 14 13 11 11 10 10 10 9 7 6 6 6 6 7 6 6 6 5 5 5 5 5 5 5 5 5 6 6 6 6 6 9 10 9 9 8 8
19 19 18 15 14 14 13 11 10 9 10 11 9 7 6 6 7 6 6 5 5 4 4 5 6 6 6 7 7 6 5 6 6 6 6 6 11 15 13 7 8 9 7
19 18 18 18 16 15 12 11 10 9 9 10 9 7 6 6 6 5 5 6 5 6 6 7 7 7 6 15 14 8 5 5 5 6 7 7 10 13 16 17 16 12 9
20 19 18 16 14 14 13 12 11 10 10 10 8 7 6 6 5 4 6 6 5 5 6 6 7 6 7 16 14 11 4 5 5 6 6 7 8 11 11 14 15 13 16
20 17 15 14 12 10 11 11 10 11 10 9 8 6 6 6 5 5 4 5 3 5 5 7 6 6 7 13 13 9 5 6 6 6 5 8 9 11 12 11 11 12 10
15 14 12 13 14 13 11 12 11 9 9 8 7 6 6 7 5 6 5 5 5 6 6 5 6 6 5 13 15 10 6 6 6 6 7 6 9 14 16 10 12 13 12
13 14 13 12 13 8 10 12 9 8 7 6 6 6 6 6 7 5 7 5 5 5 5 6 6 8 5 10 13 11 4 5 5 6 6 10 11 16 15 9 9 11 12
16 14 14 12 9 8 11 11 8 8 6 7 6 7 6 7 6 6 5 4 5 5 6 6 5 5 6 7 12 11 3 3 4 5 6 7 14 15 14 12 8 8 11
15 14 14 10 6 8 12 10 8 6 6 7 6 6 5 4 4 7 5 6 5 6 6 5 5 4 5 9 10 11 10 7 3 5 5 6 16 15 13 10 16 15 11
12 11 13 11 6 7 11 11 5 7 7 7 6 6 6 5 5 6 6 5 5 5 5 4 3 4 5 5 11 12 12 10 4 4 8 12 13 14 10 15 16 13 9
12 11 13 12 9 7 8 7 6 7 7 7 6 5 6 6 6 4 4 4 4 4 4 3 4 4 4 5 6 6 6 8 6 7 6 9 9 9 10 11 11 8 8
11 10 11 11 10 8 7 7 7 7 7 6 5 5 5 5 5 4 3 4 3 3 3 1 1 3 4 5 7 4 5 5 6 4 4 7 8 10 10 10 10 9 9
11 11 10 11 9 9 9 7 6 7 7 6 4 3 3 4 3 4 4 6 5 6 5 3 4 2 1 8 9 11 13 14 10 5 6 7 7 8 9 9 10 10 13
Wind_Direction
130 130 127 125 126 135 133 136 141 118 73 358 333 268 195 203 251 217 216 207 203 194 147 121 227 26 346 13 26 8 352 305 323 325 316 291 263 273 300 280 259 260 261
134 139 156 153 163 170 173 173 162 143 108 53 336 261 269 215 234 213 64 34 51 86 125 64 28 33 7 9 26 16 331 313 331 326 281 318 333 328 281 276 287 308 311
153 165 177 184 187 178 198 134 126 103 136 143 229 257 213 233 95 48 44 35 56 47 43 49 7 358 359 5 10 11 4 339 316 295 316 321 283 330 323 319 337 360 350
163 157 178 207 196 193 129 136 128 139 214 151 301 247 164 156 37 65 80 64 55 54 56 53 55 61 49 46 39 23 10 6 19 336 327 261 275 313 311 346 345 0 359
165 172 187 199 194 112 114 161 98 66 55 25 249 141 148 92 92 70 77 48 48 51 54 57 56 47 45 48 48 38 31 32 35 11 332 336 319 41 307 309 331 327 359
171 175 169 145 140 117 125 114 121 24 188 196 115 93 93 94 89 70 64 56 53 48 53 63 64 61 55 49 43 40 39 32 35 24 23 30 5 334 337 307 322 301 311
163 160 156 163 143 144 116 105 124 115 93 84 71 71 74 71 76 75 75 75 60 48 38 58 57 54 48 47 41 43 42 27 36 21 30 28 22 354 330 306 314 309 304
162 157 147 141 132 121 120 120 116 98 86 81 72 71 74 82 81 90 94 91 87 81 62 67 64 57 52 47 38 39 32 29 36 39 33 19 13 15 358 325 330 330 324
118 120 125 128 123 121 107 104 96 84 82 82 84 81 82 90 91 82 70 67 61 71 68 69 66 51 46 42 41 45 34 33 27 28 21 8 352 2 345 344 347 332 329
111 115 114 122 113 107 101 90 94 96 89 88 88 87 85 75 72 67 62 58 62 78 78 67 60 52 44 38 40 34 21 38 11 4 3 358 317 315 304 299 295 238 253
121 119 110 106 107 104 103 101 94 96 93 90 88 84 76 72 67 66 58 61 64 71 72 70 69 58 47 31 39 30 22 19 355 352 3 353 341 337 332 323 317 308 283
116 114 111 116 109 104 101 99 101 97 95 93 88 83 81 77 75 67 58 57 69 76 88 81 71 57 44 31 32 20 356 10 7 352 355 349 349 341 328 321 307 288 289
116 116 112 113 111 111 110 109 106 107 102 99 98 89 82 82 81 79 71 74 87 88 71 64 57 48 38 22 6 8 359 1 354 352 350 334 332 348 347 333 331 342 336
124 119 112 113 113 110 108 107 104 102 104 101 97 97 97 98 89 80 72 69 72 78 75 71 72 49 35 5 352 1 5 8 8 356 346 342 352 359 347 346 343 336 326
121 121 120 117 113 108 104 105 101 105 102 97 95 95 87 80 75 68 74 82 88 90 84 73 62 38 28 5 358 9 14 17 14 4 4 353 8 359 348 332 325 320 325
125 120 119 119 120 119 119 119 119 112 101 106 111 110 99 94 98 88 86 83 76 67 72 68 66 38 23 2 12 34 37 19 19 9 349 331 4 351 340 336 334 329 327
128 128 126 124 126 128 127 122 118 111 109 116 118 113 109 100 95 99 84 79 74 78 80 80 65 35 21 8 8 17 10 37 24 12 355 354 358 355 344 341 340 340 341
131 131 130 127 121 115 112 113 112 114 118 117 117 117 115 105 94 85 83 74 66 75 93 80 60 46 25 12 9 8 12 20 20 360 340 2 348 354 347 340 338 343 346
127 123 124 125 123 123 124 116 110 117 119 123 122 122 114 102 88 65 49 40 43 51 71 91 58 43 17 17 17 14 8 5 1 346 348 352 349 345 340 342 338 337 341
117 118 119 115 114 110 115 111 109 106 108 114 108 99 92 90 75 68 58 47 59 72 87 69 41 29 17 20 23 18 357 358 354 344 339 341 346 338 341 347 333 338 336
119 116 112 112 118 113 112 106 104 103 113 110 101 85 83 83 76 68 66 74 68 71 63 63 31 10 10 360 14 16 9 359 346 351 346 339 335 338 339 337 346 326 307
116 115 112 109 102 113 112 110 109 124 105 97 97 94 68 64 89 89 68 60 66 69 58 45 24 350 355 5 356 4 15 354 1 343 327 327 339 340 338 351 342 341 349
119 117 116 108 88 92 115 115 135 116 97 89 92 86 78 68 90 91 85 69 58 65 57 40 23 349 342 353 360 1 356 1 3 339 343 345 338 342 353 353 351 356 359
117 118 115 108 100 92 98 115 115 103 101 102 90 85 88 85 67 64 76 89 72 63 57 39 18 358 346 1 360 352 351 357 359 2 350 350 352 0 357 360 360 359 358
109 110 110 108 104 100 89 86 95 100 93 100 85 80 87 102 95 70 64 89 72 111 84 353 94 22 358 336 329 320 0 349 350 350 14 14 11 8 3 358 356 355 357
109 103 104 102 96 90 86 78 86 105 111 95 85 85 97 117 121 114 90 45 113 90 65 30 29 336 350 335 2 26 26 15 9 25 26 14 9 8 359 355 350 355 357